Regional Weather Roundup
Issued by NWS San Diego, CA

Current Version | Previous Version | Text Only | Print | Product List | Glossary On
Versions: 1 2 3 4 5 6 7 8 9 10 11 12 13 14 15 16 17 18 19 20 21 22 23 24 25 26
000
ASUS46 KSGX 170811
RWRSGX

SAN DIEGO HOURLY WEATHER ROUNDUP
NATIONAL WEATHER SERVICE SAN DIEGO CA
100 AM PDT TUE MAY 17 2022

NOTE: "FAIR" INDICATES FEW OR NO CLOUDS BELOW 12,000 FEET WITH NO
SIGNIFICANT WEATHER AND/OR OBSTRUCTIONS TO VISIBILITY.

CAZ042-043-060-061-PZZ750-775-170900-

GREATER SAN DIEGO AREA

CITY           SKY/WX    TMP DP  RH WIND       PRES   REMARKS
SAN DIEGO AP   CLOUDY    60  53  77 W7        29.97S
BROWN FIELD    CLOUDY    59  53  80 VRB5      29.96S
MIRAMAR MCAS   CLOUDY    58  54  86 SW6       29.95S
MONTGOMERY FLD CLOUDY    60  54  80 SW5       29.96S
GILLESPIE FLD  CLOUDY    61  54  77 MISG      29.95S
LEMON GROVE      N/A     59  56  89 SW1       29.93S

$$

NORTH SAN DIEGO COUNTY

CITY           SKY/WX    TMP DP  RH WIND       PRES   REMARKS
CAMP PENDLETON CLOUDY    61  56  83 S7        29.95S
OCEANSIDE AP   CLOUDY    61  54  77 S7        29.94F
OCEANSIDE HBR    N/A     60  56  86 CALM      30.01S
VISTA            N/A     60  55  84 CALM      29.93S
CARLSBAD       CLOUDY    59  53  80 SE7       29.94S
ENCINITAS        N/A     59  55  89 CALM        N/A
LA JOLLA SCRIP   N/A     58  53  81 CALM      29.95S
FALLBROOK      CLOUDY    57  54  88 CALM      29.96S
ESCONDIDO        N/A     59  55  86 S3        29.94S
SAN MARCOS       N/A     58  54  88 S1        29.97F
RANCHO BERNARD   N/A     59  54  84 S2        29.94S
POWAY            N/A     59  55  85 SW2       29.97S

$$

EAST SAN DIEGO COUNTY

CITY           SKY/WX    TMP DP  RH WIND       PRES   REMARKS
RAMONA         FOG       52  51  97 W5        29.95S VSB 1/4
SANTEE           N/A     59  55  85 CALM      29.91S
LA MESA          N/A     58  54  85 CALM      29.89
EL CAJON         N/A     59  55  85 CALM      29.83S
ALPINE           N/A     54  51  89 CALM      30.10F
DESCANSO N       N/A     50  41  72 NE3       29.91F

$$

ORANGE COUNTY AND THE LOS ANGELES BASIN

CITY           SKY/WX    TMP DP  RH WIND       PRES   REMARKS
JOHN WAYNE AP  CLOUDY    62  53  72 SE3       29.94S
LAGUNA BEACH     N/A     61  56  84 CALM      29.94R
LAKE FOREST FR   N/A     57  52  82 SW2       29.82S
SANTA ANA        N/A     61  56  84 CALM      29.93S
HUNTINGTON BCH   N/A     61  57  87 CALM      29.94R
LOS ALAMITOS   CLOUDY    60  57  92 SW3       29.92R
FULLERTON      CLOUDY    61  55  81 S6        29.93S
LONG BEACH     PTCLDY    59  54  83 S3        29.94S
L.A. AP        PTCLDY    59  54  83 W5        29.94S
L.A. DOWNTOWN  CLEAR     58  50  75 CALM      29.93S

$$

THE INLAND EMPIRE

CITY           SKY/WX    TMP DP  RH WIND       PRES   REMARKS
CORONA         CLEAR     58  55  90 W6        29.94S
UPLAND AP      FAIR      59  55  88 W5        29.93F
CHINO          CLEAR     59  53  80 W3        29.95S
ONTARIO        CLEAR     59  54  83 SW5       29.93S
SAN BERNARDINO FAIR      61  51  69 W8        29.94R
RIVERSIDE AP   CLEAR     59  54  83 W3        29.94R
MORENO VALLEY    N/A     62  57  82 S1        29.87S
MARCH ARB      CLEAR     64  52  63 NW5       29.94S
HORSETHIEF CYN   N/A     58  50  75 CALM      29.90S
PERRIS           N/A     61  52  73 CALM      29.93S
LAKE ELSINORE    N/A     61  53  74 CALM      29.84S
HEMET AP       FAIR      55  52  88 W6        29.94S
FRENCH VALLEY  PTSUNNY   54  54 100 S6        29.95S
TEMECULA         N/A     57  56  94 SW1       29.90F

$$

SAN BERNARDINO AND RIVERSIDE COUNTY MOUNTAINS

CITY           SKY/WX    TMP DP  RH WIND       PRES   REMARKS
BIG BEAR AP    CLEAR     43  32  65 W7        30.13F
BIG BEAR LAKE    N/A     47  33  59 CALM      29.84F
WRIGHTWOOD       N/A     53  28  38 CALM      29.75S
ANGELUS OAKS     N/A     54  31  41 CALM      29.75F
IDYLLWILD        N/A     49  33  53 CALM      29.76F
TORO PEAK        N/A     54  20  26 W15         N/A

$$

SOUTHERN DESERT INCLUDING THE COACHELLA VALLEY

CITY           SKY/WX    TMP DP  RH WIND       PRES   REMARKS
PALM SPRINGS   CLEAR     78  47  33 CALM      29.74S
THOUSAND PALMS   N/A     79  49  34 W17       29.67S
INDIO            N/A     82  49  31 W7        29.70S
THERMAL        CLEAR     82  47  29 NW17G24   29.69F
BORREGO AP     FAIR      79  41  25 NW12      29.74S
OCOTILLO WELLS   N/A     90  39  16 NW6       29.68S
CANEBRAKE        N/A     79  34  19 SE3       29.66S
BLYTHE         CLEAR     78  46  32 S12       29.72R
IMPERIAL AP    CLEAR     78  39  24 W15       29.71S
EL CENTRO NAS  CLEAR     82  38  20 W16       29.73S
YUMA AZ        CLEAR     79  39  23 S3        29.75S

$$

UPPER DESERT

CITY           SKY/WX    TMP DP  RH WIND       PRES   REMARKS
VICTORVILLE AP CLEAR     66  32  28 SW7G15    29.96F
HESPERIA         N/A     61  51  68 W8        29.63S
APPLE VALLEY     N/A     59  48  66 CALM      29.86S
PALMDALE       CLEAR     67  34  29 SW10      29.94S
LANCASTER      CLEAR     67  35  30 W20       29.91F
EDWARDS AFB    CLEAR     68  36  31 W20       29.87F
DAGGETT        CLEAR     74  32  21 W18       29.85S
29 PALMS N     CLEAR     75  36  24 W12G21    29.91S
NEEDLES        CLEAR     87  26  11 SW9       29.72R

$$

REGIONAL REPORTS

CITY           SKY/WX    TMP DP  RH WIND       PRES   REMARKS
SANTA BARBARA  CLEAR     55  49  80 NE3       29.92R
LAS VEGAS NV   CLEAR     82  24  12 S8        29.76S
PHOENIX AZ     CLEAR     84  23  10 SW3       29.75S
TIJUANA        CLOUDY    59  55  88 W3        29.99
ENSENADA NW      N/A     60  32  34 S1        29.94S

$$

OFFSHORE ISLANDS

CITY           SKY/WX    TMP DP  RH WIND       PRES   REMARKS
CATALINA ARPT  FOG       53  51  93 E7        29.95S VSB 3/4
SAN CLEMENTE I CLOUDY    54  49  83 W14       29.98R
SAN NICOLAS IS MOCLDY    51  48  89 NW28G40   29.92S

$$

MARINE AND OFFSHORE BUOY REPORTS

STATION/POSITION SKY/WX   TEMP    WIND        PRES    VSBY  SWELL
                          AIR SEA DIR/SP/G                  HT/PER/DIR
                          (F)     (DEG/KT/KT) (MB)    (MI)  (FT/S/D)
TANNER BANKS                  55  310/ 21/ 27 1015.2R         7/200/14
S CLEMENTE BASIN           56 61  290/ 16/ 19 1014.2R
SAN NICOLAS IS.               54                N/A           3/190/14
SO. S. ROSA ISLA                              1015.5R         2/310/11
W. S. BARBARA CH           52 51  310/ 23/ 31 1014.2F
M. S. BARBARA CH           54     280/  8/ 10 1013.7R         5/270/ 8
S. MONICA BASIN            58 61  210/ 12/ 14 1013.2R         5/260/ 7
S PEDRO CHANNEL               59                N/A           2/170/18
OCEANSIDE OFFSHR              64                N/A           2/200/18
TORREY PINES OTR              64                N/A           2/200/15
SAN DIEGO BAY                 63              1014.4R
IMPERIAL BEACH             59 62                N/A           2/220/14
POINT LOMA SOUTH              62                N/A           2/180/18

$$




USA.gov is the U.S. government's official web portal to all federal, state and local government web resources and services.